WD0REW Weather Reports


Display with metric or nautical units.
time (UTC)temp
F
wind
direction
speed
MPH
gust
MPH
rain 1hr
in
rain 24hr
in
rain mn
in
humidity
%
barometer
mb
20260510173549 71 49 1.0 3.0 0.00 0.00 0.00 44 1020.4
20260510173046 71 1 0.0 2.0 0.00 0.00 0.00 44 1020.5
20260510172542 71 353 1.0 3.0 0.00 0.00 0.00 42 1020.3
20260510172038 70 90 2.0 4.0 0.00 0.00 0.00 40 1020.0
20260510171535 70 340 2.0 3.0 0.00 0.00 0.00 41 1020.1
20260510171032 70 209 4.0 7.0 0.00 0.00 0.00 40 1020.1
20260510170528 69 47 0.0 3.0 0.00 0.00 0.00 44 1019.9
20260510170025 69 4 3.0 3.0 0.00 0.00 0.00 45 1020.0
20260510165521 69 354 2.0 7.0 0.00 0.00 0.00 43 1020.1
20260510165017 69 354 3.0 7.0 0.00 0.00 0.00 45 1019.9
20260510164515 70 353 1.0 3.0 0.00 0.00 0.00 47 1019.9
20260510164010 69 359 1.0 3.0 0.00 0.00 0.00 48 1019.8
20260510163506 68 10 2.0 4.0 0.00 0.00 0.00 48 1019.9
20260510163001 67 353 7.0 10.0 0.00 0.00 0.00 47 1020.0
20260510162458 67 1 5.0 7.0 0.00 0.00 0.00 48 1019.9
20260510161954 68 344 4.0 7.0 0.00 0.00 0.00 49 1019.7
20260510161450 68 5 0.0 3.0 0.00 0.00 0.00 50 1019.8
20260510160948 68 30 1.0 3.0 0.00 0.00 0.00 49 1019.6
20260510160445 67 9 3.0 4.0 0.00 0.00 0.00 52 1019.4
20260510155943 67 355 3.0 7.0 0.00 0.00 0.00 51 1019.5
20260510155440 67 315 2.0 4.0 0.00 0.00 0.00 52 1019.3
20260510154937 66 2 1.0 2.0 0.00 0.00 0.00 52 1019.2
20260510154433 66 347 6.0 7.0 0.00 0.00 0.00 52 1019.2
20260510153931 65 1 5.0 7.0 0.00 0.00 0.00 54 1019.2
20260510153428 65 341 3.0 7.0 0.00 0.00 0.00 56 1019.2
20260510152925 66 353 3.0 7.0 0.00 0.00 0.00 57 1019.1
20260510152423 66 339 2.0 4.0 0.00 0.00 0.00 58 1019.2
20260510151919 66 6 1.0 2.0 0.00 0.00 0.00 57 1019.3
20260510151416 65 4 1.0 2.0 0.00 0.00 0.00 59 1019.3
20260510150912 65 341 3.0 16.0 0.00 0.00 0.00 56 1019.4
20260510150408 65 9 1.0 6.0 0.00 0.00 0.00 60 1019.5
20260510145904 65 350 4.0 6.0 0.00 0.00 0.00 60 1019.5
20260510145401 65 358 2.0 4.0 0.00 0.00 0.00 61 1019.6
20260510144858 65 3 2.0 8.0 0.00 0.00 0.00 61 1019.5
20260510144355 65 4 0.0 4.0 0.00 0.00 0.00 62 1019.6
20260510143854 65 358 2.0 3.0 0.00 0.00 0.00 62 1019.5
20260510143351 65 354 2.0 6.0 0.00 0.00 0.00 62 1019.4
20260510142848 65 358 0.0 6.0 0.00 0.00 0.00 62 1019.6
20260510142344 65 0 1.0 7.0 0.00 0.00 0.00 63 1019.4
20260510141841 64 0 1.0 4.0 0.00 0.00 0.00 64 1019.2
20260510141339 64 2 3.0 9.0 0.00 0.00 0.00 64 1019.1
20260510140836 65 350 1.0 7.0 0.00 0.00 0.00 64 1018.9
20260510140332 64 355 1.0 4.0 0.00 0.00 0.00 65 1019.0
20260510135831 65 350 4.0 8.0 0.00 0.00 0.00 64 1018.7
20260510135327 65 344 2.0 4.0 0.00 0.00 0.00 64 1018.9
20260510134825 64 55 1.0 3.0 0.00 0.00 0.00 64 1018.8
20260510134322 64 22 2.0 6.0 0.00 0.00 0.00 64 1018.6
20260510133817 64 339 3.0 7.0 0.00 0.00 0.00 64 1018.8
20260510133314 64 8 2.0 7.0 0.00 0.00 0.00 64 1018.7
20260510132809 64 3 1.0 2.0 0.00 0.00 0.00 67 1018.5
20260510132308 63 355 1.0 4.0 0.00 0.00 0.00 67 1018.1
20260510131804 63 311 4.0 6.0 0.00 0.00 0.00 67 1018.4
20260510131302 63 355 2.0 7.0 0.00 0.00 0.00 67 1018.1
20260510130758 63 178 5.0 7.0 0.00 0.00 0.00 68 1018.1
20260510130255 63 353 2.0 4.0 0.00 0.00 0.00 69 1017.9
20260510125751 62 18 2.0 4.0 0.00 0.00 0.00 70 1018.0
20260510125247 61 66 0.0 2.0 0.00 0.00 0.00 72 1018.0
20260510124744 60 359 1.0 6.0 0.00 0.00 0.00 73 1017.8
20260510124242 60 354 0.0 2.0 0.00 0.00 0.00 74 1017.8
20260510123737 60 353 1.0 2.0 0.00 0.00 0.00 75 1017.6
20260510123234 60 28 1.0 1.0 0.00 0.00 0.00 75 1017.4
20260510122730 60 1 2.0 4.0 0.00 0.00 0.00 75 1017.4
20260510122226 60 11 0.0 4.0 0.00 0.00 0.00 75 1017.3
20260510121722 60 56 3.0 4.0 0.00 0.00 0.00 75 1017.2
20260510121220 60 356 0.0 2.0 0.00 0.00 0.00 77 1017.2
20260510120717 59 350 1.0 1.0 0.00 0.00 0.00 78 1017.1
20260510120214 59 77 1.0 2.0 0.00 0.00 0.00 78 1017.0
20260510115709 59 119 2.0 3.0 0.00 0.00 0.00 78 1017.0
20260510115208 59 351 0.0 1.0 0.00 0.00 0.00 78 1017.0
20260510114703 59 357 0.0 0.0 0.00 0.00 0.00 78 1017.0
20260510114200 59 357 0.0 1.0 0.00 0.00 0.00 78 1016.8
20260510113654 59 358 2.0 3.0 0.00 0.00 0.00 77 1017.0
20260510113152 59 359 0.0 1.0 0.00 0.00 0.00 77 1016.5
20260510112649 59 359 0.0 3.0 0.00 0.00 0.00 78 1016.5
20260510112146 58 351 0.0 0.0 0.00 0.00 0.00 77 1016.3
20260510111642 58 351 0.0 0.0 0.00 0.00 0.00 77 1016.1
20260510111138 58 351 0.0 0.0 0.00 0.00 0.00 77 1016.3
20260510110633 58 351 0.0 0.0 0.00 0.00 0.00 78 1016.3
20260510110131 57 351 0.0 0.0 0.00 0.00 0.00 79 1016.1
20260510105627 56 351 0.0 1.0 0.00 0.00 0.00 82 1016.0
20260510105126 56 351 0.0 1.0 0.00 0.00 0.00 85 1016.0
20260510104624 56 351 0.0 0.0 0.00 0.00 0.00 86 1016.1
20260510104120 56 351 0.0 0.0 0.00 0.00 0.00 86 1016.2
20260510103617 56 351 0.0 0.0 0.00 0.00 0.00 85 1016.2
20260510103113 56 351 0.0 0.0 0.00 0.00 0.00 85 1016.2
20260510102608 56 351 0.0 0.0 0.00 0.00 0.00 85 1016.2
20260510102105 56 351 0.0 0.0 0.00 0.00 0.00 85 1016.0
20260510101602 56 351 0.0 0.0 0.00 0.00 0.00 85 1016.1
20260510101101 57 351 0.0 0.0 0.00 0.00 0.00 85 1015.9
20260510100556 56 351 0.0 0.0 0.00 0.00 0.00 85 1015.5
20260510100054 56 351 0.0 0.0 0.00 0.00 0.00 85 1015.5
20260510095550 56 351 0.0 0.0 0.00 0.00 0.00 85 1015.5
20260510095049 56 351 0.0 0.0 0.00 0.00 0.00 85 1015.4
20260510094544 56 351 0.0 0.0 0.00 0.00 0.00 85 1015.6
20260510094040 56 351 0.0 0.0 0.00 0.00 0.00 85 1015.5
20260510093536 56 351 0.0 0.0 0.00 0.00 0.00 85 1015.4
20260510093033 56 351 0.0 0.0 0.00 0.00 0.00 84 1015.6
20260510092530 56 351 0.0 0.0 0.00 0.00 0.00 84 1015.1
20260510092029 57 351 0.0 0.0 0.00 0.00 0.00 83 1015.1
20260510091526 57 351 0.0 0.0 0.00 0.00 0.00 83 1015.1
20260510091022 57 351 0.0 0.0 0.00 0.00 0.00 83 1015.0
20260510090520 57 351 0.0 0.0 0.00 0.00 0.00 82 1015.0
20260510090015 57 351 0.0 0.0 0.00 0.00 0.00 82 1015.1
20260510085510 57 351 0.0 0.0 0.00 0.00 0.00 81 1015.1
20260510085006 58 351 0.0 0.0 0.00 0.00 0.00 82 1014.9
20260510084503 58 351 0.0 0.0 0.00 0.00 0.00 81 1014.9
20260510083959 58 351 0.0 0.0 0.00 0.00 0.00 80 1014.7
20260510083456 58 351 0.0 1.0 0.00 0.00 0.00 80 1014.6
20260510082951 58 351 0.0 1.0 0.00 0.00 0.00 80 1014.5
20260510082449 58 351 0.0 0.0 0.00 0.00 0.00 80 1014.3
20260510081949 58 351 0.0 1.0 0.00 0.00 0.00 80 1014.3
20260510081445 58 351 1.0 1.0 0.00 0.00 0.00 79 1014.5
20260510080941 58 351 0.0 0.0 0.00 0.00 0.00 79 1014.9
20260510080439 58 351 0.0 0.0 0.00 0.00 0.00 79 1015.2
20260510075937 58 351 0.0 1.0 0.00 0.00 0.00 79 1015.0
20260510075435 58 351 0.0 0.0 0.00 0.00 0.00 79 1015.2
20260510074931 58 351 0.0 0.0 0.00 0.00 0.00 79 1014.7
20260510074428 58 351 0.0 0.0 0.00 0.00 0.00 79 1014.9
20260510073925 57 351 0.0 0.0 0.00 0.00 0.00 79 1014.6
20260510073420 58 351 0.0 0.0 0.00 0.00 0.00 79 1014.5
20260510072917 58 351 0.0 0.0 0.00 0.00 0.00 78 1014.5
20260510072414 58 351 0.0 1.0 0.00 0.00 0.00 78 1014.4
20260510071909 58 351 0.0 0.0 0.00 0.00 0.00 77 1014.4
20260510071406 58 351 0.0 0.0 0.00 0.00 0.00 77 1014.5
20260510070905 58 351 0.0 0.0 0.00 0.00 0.00 76 1014.4
20260510070401 58 351 0.0 1.0 0.00 0.00 0.00 76 1014.4
20260510065856 58 351 0.0 0.0 0.00 0.00 0.00 76 1014.7
20260510065353 59 351 0.0 0.0 0.00 0.00 0.00 75 1014.4
20260510064850 59 351 0.0 0.0 0.00 0.00 0.00 74 1014.4
20260510064348 59 351 0.0 0.0 0.00 0.00 0.00 73 1014.4
20260510063843 60 351 0.0 0.0 0.00 0.00 0.00 72 1014.5
20260510063340 60 351 0.0 0.0 0.00 0.00 0.00 71 1014.5
20260510062837 61 351 0.0 0.0 0.00 0.00 0.00 70 1014.7
20260510062332 61 351 0.0 0.0 0.00 0.00 0.00 69 1014.7
20260510061828 62 351 0.0 0.0 0.00 0.00 0.00 68 1014.6
20260510061325 62 351 0.0 0.0 0.00 0.00 0.00 67 1014.6
20260510060821 62 351 0.0 0.0 0.00 0.00 0.00 67 1014.5
20260510060318 62 351 0.0 2.0 0.00 0.00 0.00 66 1014.7
20260510055815 59 353 1.0 2.0 0.00 0.00 0.00 73 1014.9
20260510055314 58 356 0.0 3.0 0.00 0.00 0.00 78 1014.4
20260510054813 58 13 1.0 1.0 0.00 0.00 0.00 79 1014.4
20260510054309 58 13 0.0 0.0 0.00 0.00 0.00 79 1014.2
20260510053810 59 13 0.0 0.0 0.00 0.00 0.00 78 1014.4
20260510053305 59 13 0.0 0.0 0.00 0.00 0.00 78 1014.3
20260510052802 59 13 0.0 0.0 0.00 0.00 0.00 77 1014.3
20260510052257 59 13 0.0 0.0 0.00 0.00 0.00 77 1014.4
20260510051754 59 13 0.0 1.0 0.00 0.00 0.00 76 1014.2
20260510051250 60 13 0.0 0.0 0.00 0.00 0.00 75 1014.2
20260510050747 60 13 0.0 0.0 0.00 0.00 0.00 75 1014.4
20260510050244 60 13 0.0 0.0 0.00 0.00 0.00 74 1014.2
20260510045742 60 13 0.0 0.0 0.00 0.01 0.01 74 1014.1
20260510045238 60 13 0.0 0.0 0.00 0.01 0.01 73 1014.0
20260510044735 60 13 0.0 0.0 0.00 0.01 0.01 72 1013.9
20260510044233 61 13 0.0 0.0 0.00 0.01 0.01 71 1014.2
20260510043727 61 13 0.0 0.0 0.00 0.01 0.01 71 1014.0
20260510043225 61 13 0.0 0.0 0.00 0.01 0.01 71 1014.1
20260510042722 61 13 0.0 0.0 0.00 0.01 0.01 71 1014.1
20260510042218 60 13 0.0 1.0 0.00 0.01 0.01 71 1014.2
20260510041715 60 13 0.0 0.0 0.00 0.01 0.01 71 1014.1
20260510041212 60 13 0.0 0.0 0.00 0.01 0.01 70 1013.7
20260510040709 60 13 0.0 0.0 0.00 0.01 0.01 70 1013.9
20260510040206 60 13 0.0 0.0 0.00 0.01 0.01 70 1013.7
20260510035701 60 13 0.0 0.0 0.00 0.01 0.01 70 1013.6
20260510035157 60 13 0.0 1.0 0.00 0.01 0.01 69 1013.7
20260510034653 60 357 0.0 0.0 0.00 0.01 0.01 69 1013.7
20260510034151 60 357 0.0 0.0 0.00 0.01 0.01 69 1013.6
20260510033647 60 356 0.0 0.0 0.00 0.01 0.01 67 1013.8
20260510033145 60 356 0.0 0.0 0.00 0.01 0.01 68 1013.6
20260510032641 61 356 0.0 0.0 0.00 0.01 0.01 68 1013.6
20260510032136 61 356 0.0 0.0 0.00 0.01 0.01 67 1013.5
20260510031631 61 357 0.0 0.0 0.00 0.01 0.01 67 1013.7
20260510031129 61 357 0.0 0.0 0.00 0.01 0.01 67 1013.5
20260510030623 61 356 0.0 0.0 0.00 0.01 0.01 66 1013.5
20260510030121 62 356 0.0 0.0 0.00 0.01 0.01 65 1013.2
20260510025618 62 356 0.0 0.0 0.00 0.01 0.01 64 1013.3
20260510025115 62 356 0.0 0.0 0.00 0.01 0.01 64 1013.1
20260510024612 62 357 0.0 0.0 0.00 0.01 0.01 63 1013.4
20260510024108 63 357 0.0 0.0 0.00 0.01 0.01 62 1012.9
20260510023604 63 357 0.0 0.0 0.00 0.01 0.01 61 1012.7
20260510023102 63 356 0.0 0.0 0.00 0.01 0.01 60 1012.5
20260510022601 63 357 0.0 0.0 0.00 0.01 0.01 60 1012.5
20260510022056 64 356 0.0 0.0 0.00 0.01 0.01 58 1012.6
20260510021552 64 356 0.0 0.0 0.00 0.01 0.01 57 1012.4
20260510021050 65 356 0.0 0.0 0.00 0.01 0.01 56 1012.3
20260510020544 65 357 0.0 0.0 0.00 0.01 0.01 56 1012.3
20260510020040 66 357 0.0 0.0 0.00 0.01 0.01 54 1012.3
20260510015536 66 357 0.0 0.0 0.00 0.01 0.01 53 1011.8
20260510015032 67 357 0.0 0.0 0.00 0.01 0.01 52 1011.9
20260510014529 67 357 0.0 0.0 0.00 0.01 0.01 52 1011.7
20260510014026 68 357 0.0 0.0 0.00 0.01 0.01 50 1011.6
20260510013520 69 357 0.0 0.0 0.00 0.01 0.01 50 1011.7
20260510013017 69 357 0.0 0.0 0.00 0.01 0.01 48 1011.5
20260510012516 70 357 0.0 0.0 0.00 0.01 0.01 47 1011.4
20260510012013 71 357 0.0 0.0 0.00 0.01 0.01 45 1011.5
20260510011507 72 357 0.0 0.0 0.00 0.01 0.01 43 1011.5
20260510011003 72 357 0.0 0.0 0.00 0.01 0.01 42 1011.4
20260510010500 73 357 0.0 0.0 0.00 0.01 0.01 41 1011.3
20260510005957 74 357 0.0 0.0 0.00 0.01 0.01 38 1011.3
20260510005453 74 357 0.0 0.0 0.00 0.01 0.01 37 1011.2
20260510004951 75 357 0.0 0.0 0.00 0.01 0.01 36 1011.1
20260510004447 75 357 0.0 0.0 0.00 0.01 0.01 36 1011.1
20260510003946 76 357 0.0 1.0 0.00 0.01 0.01 35 1011.0
20260510003442 76 351 1.0 2.0 0.00 0.01 0.01 35 1011.0
20260510002942 77 4 0.0 1.0 0.00 0.01 0.01 36 1010.8
20260510002439 77 13 0.0 0.0 0.00 0.01 0.01 35 1011.0
20260510001935 77 43 0.0 0.0 0.00 0.01 0.01 35 1011.0
20260510001433 77 43 1.0 1.0 0.00 0.01 0.01 33 1011.1
20260510000931 77 24 0.0 1.0 0.00 0.01 0.01 34 1011.1
20260510000426 77 22 0.0 1.0 0.00 0.01 0.01 34 1011.0
20260509235923 77 358 0.0 1.0 0.00 0.01 0.01 34 1011.2
20260509235420 78 1 0.0 1.0 0.00 0.01 0.01 34 1010.9
20260509234916 78 352 0.0 1.0 0.00 0.01 0.01 32 1011.0
20260509234413 78 8 0.0 2.0 0.00 0.01 0.01 32 1011.1
20260509233911 78 2 1.0 1.0 0.00 0.01 0.01 33 1011.1
20260509233409 79 358 0.0 2.0 0.00 0.01 0.01 34 1011.2
20260509232904 79 257 2.0 3.0 0.00 0.01 0.01 32 1010.9
20260509232403 78 26 0.0 2.0 0.00 0.01 0.01 32 1010.9
20260509231858 79 345 1.0 1.0 0.00 0.01 0.01 31 1011.1
20260509231355 79 358 0.0 0.0 0.00 0.01 0.01 30 1011.0
20260509230853 79 359 1.0 2.0 0.00 0.01 0.01 32 1011.0
20260509230350 79 22 0.0 0.0 0.00 0.01 0.01 31 1011.1
20260509225845 80 5 1.0 3.0 0.00 0.01 0.01 33 1011.0
20260509225342 80 355 2.0 3.0 0.00 0.01 0.01 32 1011.1
20260509224838 80 44 0.0 1.0 0.00 0.01 0.01 33 1010.9
20260509224334 80 15 0.0 2.0 0.00 0.01 0.01 31 1010.8
20260509223831 80 245 2.0 3.0 0.00 0.01 0.01 31 1010.9
20260509223328 80 350 1.0 2.0 0.00 0.01 0.01 31 1010.9
20260509222825 80 358 2.0 3.0 0.00 0.01 0.01 32 1011.0
20260509222320 80 345 1.0 1.0 0.00 0.01 0.01 31 1010.8
20260509221815 80 249 4.0 6.0 0.00 0.01 0.01 31 1011.2
20260509221313 81 2 0.0 3.0 0.00 0.01 0.01 34 1011.2
20260509220808 80 357 0.0 2.0 0.00 0.01 0.01 32 1011.0
20260509220304 81 356 1.0 3.0 0.00 0.01 0.01 31 1011.1
20260509215800 80 24 1.0 2.0 0.00 0.01 0.01 35 1010.9
20260509215257 81 2 1.0 2.0 0.00 0.01 0.01 32 1010.9
20260509214754 81 19 0.0 3.0 0.00 0.01 0.01 32 1010.9
20260509214251 81 8 0.0 4.0 0.00 0.01 0.01 31 1011.0
20260509213748 81 35 1.0 3.0 0.00 0.01 0.01 33 1011.0
20260509213243 81 359 1.0 7.0 0.00 0.01 0.01 31 1011.0
20260509212741 81 357 2.0 4.0 0.00 0.01 0.01 30 1011.0
20260509212238 82 358 1.0 2.0 0.00 0.01 0.01 28 1011.1
20260509211734 81 7 1.0 1.0 0.00 0.01 0.01 31 1011.0
20260509211231 81 359 1.0 1.0 0.00 0.01 0.01 31 1011.1
20260509210727 81 347 1.0 6.0 0.00 0.01 0.01 30 1011.1
20260509210225 81 1 0.0 3.0 0.00 0.01 0.01 30 1011.0
20260509205724 82 359 2.0 4.0 0.00 0.01 0.01 33 1011.3
20260509205224 82 10 1.0 3.0 0.00 0.01 0.01 32 1011.4
20260509204720 82 338 2.0 4.0 0.00 0.01 0.01 30 1011.3
20260509204217 83 22 0.0 4.0 0.00 0.01 0.01 29 1011.1
20260509203713 83 25 1.0 4.0 0.00 0.01 0.01 29 1011.2
20260509203211 83 4 1.0 3.0 0.00 0.01 0.01 29 1011.3
20260509202706 82 1 0.0 4.0 0.00 0.01 0.01 28 1011.4
20260509202201 82 226 3.0 3.0 0.00 0.01 0.01 27 1011.5
20260509201657 82 315 1.0 3.0 0.00 0.01 0.01 29 1011.5
20260509201154 83 341 2.0 3.0 0.00 0.01 0.01 29 1011.6
20260509200650 84 342 3.0 8.0 0.00 0.01 0.01 26 1011.7
20260509200145 84 353 2.0 3.0 0.00 0.01 0.01 27 1011.7
20260509195642 84 2 0.0 1.0 0.00 0.01 0.01 29 1011.9
20260509195137 84 20 3.0 4.0 0.00 0.01 0.01 30 1011.7
20260509194637 83 351 2.0 4.0 0.00 0.01 0.01 30 1011.7
20260509194134 84 339 2.0 10.0 0.00 0.01 0.01 29 1011.8
20260509193630 84 344 3.0 3.0 0.00 0.01 0.01 30 1012.0
20260509193126 83 337 3.0 4.0 0.00 0.01 0.01 28 1011.9
20260509192623 84 354 2.0 6.0 0.00 0.01 0.01 29 1011.9
20260509192118 84 37 2.0 3.0 0.00 0.01 0.01 31 1012.0
20260509191618 83 12 0.0 1.0 0.00 0.01 0.01 29 1011.9
20260509191115 83 331 2.0 2.0 0.00 0.01 0.01 32 1012.2
20260509190611 83 207 2.0 3.0 0.00 0.01 0.01 29 1012.0
20260509190109 82 43 1.0 3.0 0.00 0.01 0.01 30 1011.9
20260509185606 83 357 2.0 6.0 0.00 0.01 0.01 30 1012.0
20260509185102 83 7 1.0 3.0 0.00 0.01 0.01 32 1011.9
20260509184601 83 22 1.0 2.0 0.00 0.01 0.01 32 1012.3
20260509184057 83 342 1.0 4.0 0.00 0.01 0.01 33 1012.3
20260509183552 83 352 2.0 3.0 0.00 0.01 0.01 28 1011.8
20260509183048 83 18 0.0 4.0 0.00 0.01 0.01 28 1012.0
20260509182545 82 345 1.0 2.0 0.00 0.01 0.01 37 1012.2
20260509182042 82 292 2.0 3.0 0.00 0.01 0.01 32 1011.8
20260509181540 82 352 2.0 2.0 0.00 0.01 0.01 32 1011.8
20260509181037 82 4 2.0 3.0 0.00 0.01 0.01 31 1011.9
20260509180532 82 328 2.0 4.0 0.00 0.01 0.01 31 1011.9
20260509180030 82 4 0.0 2.0 0.00 0.01 0.01 33 1011.9
20260509175525 82 350 2.0 3.0 0.00 0.01 0.01 32 1012.2
20260509175022 82 354 1.0 2.0 0.00 0.01 0.01 32 1012.3
20260509174519 81 356 2.0 3.0 0.00 0.01 0.01 32 1012.3